[[{"header":{"parameterUnit":"m.s-1","parameterCategory":1,"la1":30.2991,"la2":30.254,"lo1":-89.0895,"lo2":-89.0444,"dy":0.0017,"dx":0.0017,"nx":28,"ny":28,"refTime":"2025-07-15T21:00:00:Z","depth":0,"parameterNumber":2,"parameterNumberName":"U-component_of_WINDS"},"data":[0,0,0,0,0,0,0,0,0,0,0,0,0,0,0,0,0,0,0,0,0,0,0,0,0,0,0,0,0,0,0,0,0,0,0,0,0,0,0,0,0,0,0,0,0,0,0,0,0,0,0,0,0,0,0,0,0,0,3.1568,3.1569,0,3.1688,3.1689,3.1691,3.1615,3.1611,3.1608,3.1604,3.1733,3.174,3.1746,0,0,0,0,0,0,0,0,0,0,0,0,0,3.1277,3.1283,3.1567,3.1569,3.1571,3.1688,3.1689,3.1691,3.1616,3.1611,3.1607,3.1603,3.1731,3.1739,3.1747,0,0,0,0,0,0,0,0,0,0,0,0,0,3.1401,3.1285,3.1567,3.1547,3.1546,3.1687,3.169,3.1692,3.1617,3.1611,3.1606,3.1601,3.1728,3.1738,3.1748,3.1918,0,0,3.1779,3.1783,0,0,0,0,0,0,0,0,3.1394,3.1412,3.1548,3.1548,3.1548,3.1631,3.1634,3.1768,3.1618,3.159,3.1604,3.1598,3.1704,3.1716,3.175,3.1924,3.1929,3.178,3.1786,3.179,3.1793,0,0,0,0,0,0,0,3.1386,3.1406,3.1615,3.155,3.155,3.1533,3.1545,3.1659,3.1676,3.1592,3.1587,3.1602,3.1703,3.174,3.1753,3.1931,3.178,3.1789,3.1795,3.1799,3.225,3.2256,0,0,0,0,0,0,3.1378,3.14,3.1611,3.1619,3.1456,3.1543,3.1556,3.161,3.1674,3.1679,3.1606,3.1598,3.1726,3.1741,3.1757,3.1959,3.179,3.18,3.1806,3.2244,3.2252,3.2258,0,0,0,0,0,0,3.1372,3.1398,3.1607,3.1508,3.1533,3.1554,3.1615,3.1615,3.1652,3.1685,3.1688,3.1641,3.1722,3.1742,3.1878,3.1962,3.1804,3.1814,3.2237,3.2247,3.2255,3.2365,0,0,0,0,0,0,3.1364,3.1396,3.1459,3.151,3.1539,3.1724,3.162,3.1621,3.167,3.166,3.1719,3.1723,3.172,3.1863,3.1888,3.1973,3.1821,3.223,3.2242,3.2252,3.2354,3.2377,3.2396,0,0,0,0,0,3.1354,3.1487,3.1463,3.1489,3.1618,3.1729,3.1746,3.1737,3.1677,3.1741,3.1762,3.1721,3.195,3.1878,3.1905,3.1995,3.2225,3.2238,3.2251,3.2345,3.2373,3.2396,0,0,0,0,0,0,3.1447,3.1493,3.1467,3.162,3.1671,3.1716,3.1797,3.1767,3.1838,3.1826,3.1814,3.1828,3.1969,3.1996,3.1915,3.2163,3.2078,3.2097,3.214,3.2166,3.2187,3.2177,3.183,0,0,0,0,0,3.1485,3.157,3.1606,3.1738,3.1765,3.1777,3.1825,3.1814,3.1867,3.1889,3.192,3.1975,3.2058,3.2114,3.2193,3.2358,3.237,3.2434,3.2455,3.2472,3.2489,3.2578,3.2606,3.2302,3.2302,3.2301,0,0,3.1565,3.1601,3.1656,3.1758,3.1796,3.1885,3.1796,3.1894,3.1961,3.1905,3.2033,3.2059,3.2119,3.227,3.2338,3.2296,3.2576,3.2489,3.2502,3.251,3.2595,3.2623,3.2649,3.2311,3.2309,3.2308,0,0,3.1756,3.1792,3.1905,3.1945,3.2004,3.2011,3.2039,3.2089,3.2103,3.2232,3.2191,3.2272,3.2416,3.2461,3.2502,3.2712,3.2677,3.2738,3.2848,3.2935,3.2959,3.298,3.3054,3.3081,3.2755,3.2755,3.2755,0,3.1849,3.198,3.1967,3.2069,3.2115,3.2067,3.2182,3.2223,3.2305,3.2339,3.2291,3.2472,3.2509,3.267,3.272,3.2756,3.2788,3.2731,3.2956,3.2977,3.2997,3.3067,3.3095,3.2762,3.2761,3.2761,3.276,0,3.2091,3.2183,3.2268,3.2346,3.2403,3.2511,3.2516,3.2575,3.2559,3.2572,3.2705,3.2748,3.2835,3.2873,3.2859,3.3032,3.3004,3.2957,3.2871,3.3033,3.3099,3.3126,3.2772,3.277,3.2768,3.2766,0,0,3.2342,3.2413,3.2444,3.2479,3.2541,3.2613,3.272,3.2803,3.2854,3.2913,3.3002,3.3126,3.3083,3.313,3.3122,3.3199,3.3361,3.3142,3.3143,3.318,3.3554,3.3588,3.3619,3.3339,3.3344,3.3348,3.3548,0,3.2536,3.272,3.2712,3.2884,3.2969,3.2926,3.3019,3.3068,3.3083,3.3159,3.3177,3.3265,3.3201,3.3229,3.3303,3.3326,3.3436,3.3311,3.3423,3.3427,3.3407,3.3654,3.369,3.3876,3.3574,3.3578,3.3582,0,3.2786,3.2852,3.3032,3.3081,3.3117,3.32,3.3276,3.3349,3.3405,3.3411,3.3464,3.3443,3.3553,3.3465,3.3617,3.3532,3.3578,3.3596,3.3603,3.3612,3.3513,3.3668,3.3936,3.3963,3.3622,3.3619,3.3616,0,3.295,3.3085,3.321,3.3241,3.3302,3.3362,3.339,3.344,3.3491,3.3558,3.3591,3.3671,3.3715,3.3778,3.378,3.3716,3.3933,3.3846,3.3942,3.3942,3.3988,3.3985,3.4266,3.402,3.402,3.4019,3.4019,0,3.3167,3.3279,3.3284,3.3361,3.3485,3.3477,3.3601,3.3623,3.3669,3.375,3.3719,3.3796,3.3795,3.3875,3.3878,3.4002,3.4023,3.4031,3.403,3.4033,3.4032,3.4062,3.4049,3.4027,3.4025,3.4024,3.4022,0,3.337,3.3378,3.3512,3.3558,3.3573,3.3663,3.3703,3.3777,3.379,3.3894,3.3918,3.3939,3.4031,3.404,3.4147,3.4149,3.43,3.4286,3.428,3.4277,3.4372,3.4363,3.4681,3.4722,3.4451,3.4454,3.4456,0,3.3507,3.3592,3.3647,3.3699,3.373,3.3814,3.3865,3.3861,3.3916,3.3986,3.4051,3.414,3.421,3.436,3.4386,3.4468,3.4455,3.4561,3.4468,3.4468,3.4456,3.445,3.4458,3.4579,3.4582,3.4584,3.4586,0,3.3748,3.3748,3.3822,3.3899,3.396,3.402,3.4077,3.4121,3.4124,3.4188,3.428,3.4335,3.4444,3.4533,3.4614,3.4645,3.4617,3.4616,3.4642,3.4645,3.4638,3.4642,3.4328,3.4608,3.4606,3.4604,3.4603,3.4602,3.3922,3.3995,3.4045,3.4129,3.4171,3.4224,3.4296,3.4317,3.4394,3.4481,3.4475,3.4578,3.4632,3.4737,3.4775,3.4856,3.4821,3.4859,3.4869,3.4878,3.4887,3.4626,3.4871,3.4871,3.487,3.487,3.4869,0,3.416,3.4191,3.4268,3.4347,3.4413,3.438,3.4441,3.4499,3.4589,3.4642,3.4711,3.4819,3.4905,3.4938,3.5022,3.5081,3.507,3.5103,3.5098,3.5106,3.4914,3.4883,3.5111,3.5111,3.5111,3.511,3.511,3.511,3.4292,3.4414,3.442,3.4563,3.4593,3.4692,3.4729,3.4779,3.4821,3.4941,3.5012,3.5032,3.5078,3.5165,3.5243,3.5251,3.5283,3.5321,3.5324,3.5144,3.5119,3.5096,3.5066,3.5329,3.5329,3.5508,3.551,3.5511]},{"header":{"parameterUnit":"m.s-1","parameterCategory":1,"la1":30.2991,"la2":30.254,"lo1":-89.0895,"lo2":-89.0444,"dy":0.0017,"dx":0.0017,"nx":28,"ny":28,"refTime":"2025-07-15T21:00:00:Z","depth":0,"parameterNumber":3,"parameterNumberName":"V-component_of_WINDS"},"data":[0,0,0,0,0,0,0,0,0,0,0,0,0,0,0,0,0,0,0,0,0,0,0,0,0,0,0,0,0,0,0,0,0,0,0,0,0,0,0,0,0,0,0,0,0,0,0,0,0,0,0,0,0,0,0,0,0,0,1.5659,1.566,0,1.5686,1.5686,1.5686,1.5632,1.5631,1.5629,1.5627,1.5654,1.5657,1.5659,0,0,0,0,0,0,0,0,0,0,0,0,0,1.556,1.5562,1.5659,1.566,1.566,1.5686,1.5686,1.5686,1.5633,1.5631,1.5629,1.5627,1.5654,1.5656,1.5659,0,0,0,0,0,0,0,0,0,0,0,0,0,1.5597,1.5563,1.5659,1.5636,1.5634,1.5686,1.5686,1.5687,1.5633,1.5631,1.5628,1.5625,1.5653,1.5656,1.566,1.5734,0,0,1.5671,1.5672,0,0,0,0,0,0,0,0,1.5595,1.56,1.5639,1.5638,1.5636,1.5653,1.5661,1.5703,1.5634,1.5634,1.5627,1.5624,1.5656,1.5659,1.567,1.5736,1.5737,1.5671,1.5673,1.5674,1.5675,0,0,0,0,0,0,0,1.5592,1.5599,1.567,1.564,1.5638,1.5624,1.5626,1.5669,1.5659,1.5634,1.563,1.5634,1.5655,1.5667,1.567,1.5737,1.5671,1.5674,1.5676,1.5677,1.5863,1.5865,0,0,0,0,0,0,1.5593,1.5597,1.5669,1.567,1.5608,1.5628,1.563,1.565,1.5659,1.5658,1.5636,1.5631,1.5662,1.5666,1.5671,1.5757,1.5674,1.5678,1.568,1.586,1.5863,1.5866,0,0,0,0,0,0,1.5591,1.56,1.5668,1.5633,1.564,1.5632,1.5655,1.5652,1.5664,1.5661,1.5658,1.565,1.566,1.5666,1.5718,1.5757,1.5679,1.5683,1.5857,1.5861,1.5865,1.5931,0,0,0,0,0,0,1.5588,1.5599,1.5628,1.5634,1.5642,1.5716,1.5658,1.5655,1.567,1.5664,1.5673,1.5672,1.5658,1.5713,1.5722,1.5761,1.5685,1.5853,1.5859,1.5863,1.5926,1.5937,1.5947,0,0,0,0,0,1.5585,1.5647,1.563,1.5639,1.5679,1.5718,1.5723,1.5706,1.5674,1.5702,1.5699,1.5672,1.5752,1.5719,1.5728,1.5769,1.585,1.5857,1.5863,1.5921,1.5935,1.5947,0,0,0,0,0,0,1.5646,1.5647,1.5629,1.5694,1.5706,1.5709,1.5744,1.5722,1.5744,1.5737,1.5715,1.5717,1.5774,1.5777,1.574,1.584,1.5796,1.5804,1.5836,1.585,1.5861,1.5858,1.5688,0,0,0,0,0,1.5668,1.57,1.5698,1.5756,1.5763,1.5753,1.5769,1.5755,1.5767,1.5772,1.5773,1.5785,1.5813,1.5832,1.5857,1.5926,1.5926,1.5958,1.5969,1.5978,1.5985,1.6019,1.6033,1.5887,1.5887,1.5887,0,0,1.5712,1.5716,1.5738,1.5769,1.5776,1.5809,1.5758,1.5795,1.5819,1.5778,1.5827,1.5828,1.584,1.59,1.5927,1.5904,1.6025,1.5986,1.5993,1.5995,1.6027,1.6041,1.6053,1.5891,1.589,1.589,0,0,1.5808,1.5816,1.5863,1.5872,1.5884,1.5876,1.5888,1.5893,1.5892,1.5941,1.591,1.5938,1.5986,1.5995,1.6007,1.6104,1.6079,1.6113,1.617,1.6203,1.6215,1.6225,1.6258,1.6271,1.6121,1.6121,1.6121,0,1.5862,1.591,1.5891,1.593,1.5944,1.5907,1.5954,1.5963,1.5983,1.5993,1.5968,1.6026,1.6032,1.6093,1.6116,1.6127,1.6138,1.6112,1.6215,1.6225,1.6234,1.6265,1.6278,1.6125,1.6124,1.6124,1.6124,0,1.5974,1.6008,1.6045,1.6064,1.6082,1.6126,1.6112,1.6132,1.6116,1.611,1.6159,1.6165,1.6189,1.6203,1.6188,1.6261,1.6247,1.6219,1.6173,1.6252,1.6281,1.6293,1.6131,1.6129,1.6128,1.6127,0,0,1.6112,1.6118,1.6131,1.6139,1.6148,1.6174,1.6215,1.6238,1.6255,1.627,1.6303,1.6344,1.6317,1.633,1.6315,1.6345,1.642,1.6313,1.6312,1.6331,1.6498,1.6519,1.6533,1.6403,1.6405,1.6407,1.6497,0,1.6206,1.6276,1.6258,1.6327,1.6357,1.6322,1.6357,1.6366,1.6362,1.6386,1.6381,1.641,1.6374,1.6381,1.6409,1.6405,1.6453,1.6398,1.6432,1.6433,1.6429,1.6549,1.6571,1.6655,1.6508,1.651,1.6512,0,1.6326,1.6344,1.6416,1.6418,1.643,1.6462,1.6481,1.6505,1.6514,1.6509,1.6522,1.6501,1.654,1.6494,1.6547,1.651,1.6523,1.6523,1.6526,1.6527,1.6477,1.6552,1.6682,1.6694,1.653,1.6528,1.6527,0,1.6416,1.6459,1.6506,1.6514,1.6519,1.6541,1.6544,1.6551,1.6565,1.6582,1.6591,1.6612,1.6624,1.664,1.6625,1.6594,1.6679,1.6633,1.6675,1.6675,1.6694,1.6693,1.6827,1.6705,1.6704,1.6704,1.6704,0,1.6523,1.6568,1.6547,1.6576,1.6625,1.6604,1.6652,1.6651,1.6657,1.6684,1.6655,1.6682,1.6661,1.6685,1.6673,1.6718,1.6723,1.6719,1.6715,1.6721,1.6722,1.6729,1.6722,1.6708,1.6707,1.6706,1.6706,0,1.6632,1.662,1.6669,1.6669,1.667,1.6706,1.6705,1.6732,1.6725,1.676,1.6767,1.6756,1.6783,1.677,1.6798,1.679,1.6847,1.6836,1.6844,1.684,1.6882,1.6878,1.7024,1.7042,1.691,1.6911,1.6912,0,1.6701,1.6734,1.6737,1.6753,1.6758,1.6785,1.6799,1.6779,1.6795,1.6807,1.6831,1.6856,1.6874,1.6919,1.6913,1.6934,1.6923,1.6972,1.6926,1.693,1.6922,1.6919,1.6922,1.6982,1.6983,1.6984,1.6986,0,1.6823,1.6814,1.6836,1.6855,1.6873,1.6887,1.6899,1.6914,1.6894,1.6913,1.694,1.6955,1.6983,1.7007,1.7025,1.7027,1.7003,1.7,1.7011,1.7017,1.7019,1.7017,1.6868,1.6997,1.6996,1.6995,1.6994,1.6994,1.6912,1.6939,1.6945,1.697,1.6976,1.6987,1.7012,1.7007,1.7029,1.705,1.7037,1.7068,1.7074,1.7096,1.7101,1.7125,1.7105,1.7121,1.7124,1.7128,1.7133,1.7016,1.7128,1.7128,1.7127,1.7127,1.7127,0,1.7031,1.7033,1.7055,1.7072,1.7091,1.7066,1.7077,1.7095,1.7122,1.713,1.7149,1.7179,1.7201,1.7197,1.7217,1.7237,1.7226,1.7243,1.7241,1.7241,1.7151,1.7139,1.7251,1.7251,1.7251,1.7251,1.7251,1.7251,1.7095,1.7139,1.7131,1.7178,1.7179,1.7209,1.7217,1.7227,1.7232,1.7267,1.7286,1.7282,1.7285,1.7305,1.7324,1.7322,1.7331,1.7351,1.7345,1.726,1.7248,1.7236,1.7225,1.7353,1.7354,1.7433,1.7434,1.7435]}]]